Mount Airy, NC

7:21 PM EST on December 07, 2019 (GMT -0500)
Mount Airy-Surry County

Weather History for KMWK - October, 2019

Change the Weather History Date:

Wednesday, October 16, 2019

  Actual Average (WUND) Record (WUND)
Temperature  
Mean Temperature 58 °F -  
Max Temperature 65 °F - - (-1)
Min Temperature 50 °F - - (-1)
Degree Days  
Heating Degree Days 6    
Growing Degree Days 8 (Base 50)    
Moisture  
Dew Point 48 °F    
Average Humidity 73    
Maximum Humidity 93    
Minimum Humidity 43    
Precipitation  
Precipitation 0.00 in - - ()
Sea Level Pressure  
Sea Level Pressure 29.82 in    
Wind  
Wind Speed 3 mph ()    
Max Wind Speed 17 mph    
Max Gust Speed 33 mph    
Visibility 9.1 miles    
Events Rain    
Averages and records for this station are not official NWS values.
T = Trace of Precipitation, MM = Missing Value Source: Averaged Metar Reports

Daily Weather History Graph

Daily Weather History Graph

Search for Another Location

Airport or City:

Astronomy

Oct. 16, 2019 Rise Set
Actual Time 7:30 AM EDT 6:44 PM EDT
Civil Twilight 7:04 AM EDT 7:10 PM EDT
Nautical Twilight 6:34 AM EDT 7:40 PM EDT
Astronomical Twilight 6:04 AM EDT 8:10 PM EDT
Moon 8:41 PM EDT (10/16) 9:56 AM EDT (10/16)
Length of Visible Light 12h 06m
Length of Day
11h 14m
Waning Gibbous, 93% of the Moon is Illuminated
Oct 16
Waning Gibbous
Oct 21
Last Quarter
Oct 27
New
Nov 4
First Quarter
Nov 12
Full

Hourly Weather History & Observations

Time (EDT) Temp. Dew Point Humidity Pressure Visibility Wind Dir Wind Speed Gust Speed Precip Events Conditions
12:15 AM 59.9 °F 51.1 °F 73% 30.02 in 10.0 mi Calm Calm - N/A   Scattered Clouds
12:35 AM 60.1 °F 51.3 °F 73% 30.01 in 10.0 mi Calm Calm - N/A   Mostly Cloudy
12:55 AM 60.6 °F 51.3 °F 71% 30.00 in 10.0 mi SE 3.5 mph - N/A   Scattered Clouds
1:15 AM 60.4 °F 51.1 °F 71% 29.99 in 10.0 mi Calm Calm - N/A   Scattered Clouds
1:35 AM 60.3 °F 50.9 °F 71% 29.97 in 10.0 mi Calm Calm - N/A   Scattered Clouds
1:55 AM 60.6 °F 50.5 °F 69% 29.97 in 10.0 mi Calm Calm - N/A   Mostly Cloudy
2:15 AM 60.8 °F 51.3 °F 71% 29.96 in 10.0 mi Calm Calm - N/A   Overcast
2:35 AM 61.7 °F 50.5 °F 67% 29.95 in 10.0 mi Calm Calm - N/A   Overcast
2:55 AM 59.7 °F 53.2 °F 79% 29.95 in 10.0 mi Calm Calm - N/A   Overcast
3:15 AM 57.4 °F 53.1 °F 85% 29.95 in 10.0 mi WSW 3.5 mph - N/A   Overcast
3:35 AM 56.1 °F 52.7 °F 88% 29.97 in 5.0 mi SSW 4.6 mph - N/A Rain Heavy Rain
3:55 AM 55.8 °F 52.9 °F 90% 29.94 in 10.0 mi Calm Calm - N/A Rain Light Rain
4:15 AM 55.9 °F 53.1 °F 90% 29.92 in 10.0 mi ESE 3.5 mph - N/A Rain Light Rain
4:35 AM 55.4 °F 52.7 °F 91% 29.92 in 10.0 mi SE 3.5 mph - N/A   Drizzle
4:55 AM 55.4 °F 52.7 °F 91% 29.92 in 10.0 mi ESE 3.5 mph - N/A Rain Light Rain
5:15 AM 55.4 °F 52.7 °F 91% 29.91 in 7.0 mi SE 4.6 mph - N/A   Drizzle
5:35 AM 54.9 °F 52.5 °F 92% 29.90 in 10.0 mi SE 4.6 mph - N/A   Overcast
5:55 AM 54.7 °F 52.3 °F 92% 29.90 in 10.0 mi Calm Calm - N/A   Mostly Cloudy
6:35 AM 54.0 °F 51.4 °F 91% 29.87 in 10.0 mi East 3.5 mph - N/A   Overcast
6:55 AM 54.0 °F 51.8 °F 92% 29.87 in 10.0 mi Calm Calm - N/A   Overcast
7:15 AM 53.8 °F 51.4 °F 92% 29.85 in 7.0 mi ENE 3.5 mph - N/A   Overcast
7:35 AM 54.0 °F 51.8 °F 92% 29.83 in 4.0 mi Calm Calm - N/A Rain Heavy Rain
7:55 AM 53.6 °F 51.4 °F 92% 29.82 in 7.0 mi Calm Calm - N/A Rain Rain
8:15 AM 53.4 °F 51.1 °F 92% 29.80 in 10.0 mi NE 3.5 mph - N/A   Drizzle
8:35 AM 53.2 °F 51.1 °F 92% 29.80 in 7.0 mi Calm Calm - N/A Rain Heavy Rain
8:55 AM 53.4 °F 51.3 °F 92% 29.79 in 2.5 mi Calm Calm - N/A Rain Heavy Rain
9:15 AM 52.9 °F 50.9 °F 93% 29.78 in 2.0 mi NE 3.5 mph - N/A Rain Heavy Rain
9:35 AM 53.4 °F 51.3 °F 92% 29.78 in 10.0 mi Calm Calm - N/A Rain Rain
10:15 AM 53.1 °F 51.1 °F 93% 29.80 in 4.0 mi WNW 3.5 mph - N/A Rain Rain
10:35 AM 53.8 °F 51.8 °F 93% 29.78 in 2.5 mi Calm Calm - N/A Rain Rain
10:55 AM 54.7 °F 52.7 °F 93% 29.77 in 10.0 mi Calm Calm - N/A   Mostly Cloudy
11:15 AM 54.9 °F 52.7 °F 92% 29.76 in 5.0 mi Calm Calm - N/A   Heavy Drizzle
11:35 AM 55.8 °F 53.6 °F 92% 29.75 in 10.0 mi Calm Calm - N/A   Overcast
11:55 AM 55.9 °F 53.8 °F 92% 29.73 in 10.0 mi Calm Calm - N/A   Mostly Cloudy
12:35 PM 58.3 °F 55.6 °F 91% 29.72 in 10.0 mi Calm Calm - N/A   Mostly Cloudy
1:15 PM 60.3 °F 56.7 °F 88% 29.72 in 10.0 mi West 4.6 mph - N/A   Mostly Cloudy
1:35 PM 60.6 °F 56.8 °F 87% 29.70 in 10.0 mi Calm Calm - N/A   Mostly Cloudy
1:55 PM 61.2 °F 57.4 °F 87% 29.71 in 10.0 mi WNW 4.6 mph - N/A   Mostly Cloudy
2:15 PM 60.8 °F 57.6 °F 89% 29.71 in 10.0 mi Calm Calm - N/A   Overcast
2:35 PM 62.1 °F 57.9 °F 86% 29.70 in 10.0 mi NW 4.6 mph - N/A   Mostly Cloudy
2:55 PM 64.6 °F 57.6 °F 78% 29.69 in 10.0 mi NW 6.9 mph - N/A   Scattered Clouds
3:15 PM 65.5 °F 54.3 °F 67% 29.70 in 10.0 mi WNW 8.1 mph 18.4 mph N/A   Scattered Clouds
3:35 PM 65.3 °F 46.6 °F 51% 29.71 in 10.0 mi WNW 13.8 mph 24.2 mph N/A   Clear
3:55 PM 64.2 °F 44.8 °F 49% 29.72 in 10.0 mi NW 12.7 mph 21.9 mph N/A   Clear
4:15 PM 63.3 °F 42.4 °F 46% 29.73 in 10.0 mi West 8.1 mph 20.7 mph N/A   Clear
4:35 PM 63.0 °F 43.2 °F 48% 29.73 in 10.0 mi WNW 10.4 mph 16.1 mph N/A   Clear
4:55 PM 62.1 °F 41.0 °F 46% 29.74 in 10.0 mi WNW 11.5 mph 21.9 mph N/A   Clear
5:15 PM 61.0 °F 38.3 °F 43% 29.74 in 10.0 mi NW 12.7 mph 20.7 mph N/A   Clear
5:35 PM 60.6 °F 38.5 °F 44% 29.74 in 10.0 mi NW 17.3 mph 23.0 mph N/A   Clear
5:55 PM 59.9 °F 39.6 °F 47% 29.75 in 10.0 mi WNW 10.4 mph 17.3 mph N/A   Clear
6:15 PM 58.8 °F 39.9 °F 50% 29.75 in 10.0 mi NW 8.1 mph 19.6 mph N/A   Clear
6:35 PM 57.6 °F 40.3 °F 53% 29.76 in 10.0 mi NW 11.5 mph 19.6 mph N/A   Clear
6:55 PM 57.2 °F 41.2 °F 55% 29.76 in 10.0 mi NW 12.7 mph 18.4 mph N/A   Clear
7:15 PM 56.3 °F 41.0 °F 57% 29.78 in 10.0 mi NW 8.1 mph - N/A   Clear
7:35 PM 55.6 °F 40.8 °F 58% 29.78 in 10.0 mi NW 8.1 mph - N/A   Clear
7:55 PM 56.5 °F 39.9 °F 54% 29.79 in 10.0 mi NW 9.2 mph 16.1 mph N/A   Scattered Clouds
8:15 PM 55.9 °F 40.1 °F 55% 29.80 in 10.0 mi WNW 5.8 mph 18.4 mph N/A   Scattered Clouds
8:35 PM 55.4 °F 39.0 °F 54% 29.80 in 10.0 mi NW 15.0 mph 23.0 mph N/A   Clear
8:55 PM 54.9 °F 38.5 °F 54% 29.80 in 10.0 mi WNW 10.4 mph 21.9 mph N/A   Scattered Clouds
9:15 PM 55.0 °F 38.1 °F 53% 29.81 in 10.0 mi WNW 9.2 mph 17.3 mph N/A   Scattered Clouds
9:35 PM 54.9 °F 37.6 °F 52% 29.82 in 10.0 mi NW 11.5 mph 20.7 mph N/A   Scattered Clouds
9:55 PM 54.5 °F 36.9 °F 51% 29.83 in 10.0 mi NW 15.0 mph 33.4 mph N/A   Clear
10:15 PM 53.6 °F 36.7 °F 53% 29.84 in 10.0 mi WNW 10.4 mph 25.3 mph N/A   Scattered Clouds
10:35 PM 53.6 °F 36.9 °F 53% 29.85 in 10.0 mi WNW 11.5 mph 19.6 mph N/A   Mostly Cloudy
10:55 PM 52.9 °F 36.9 °F 55% 29.87 in 10.0 mi WNW 4.6 mph - N/A   Overcast
11:15 PM 52.2 °F 36.5 °F 55% 29.88 in 10.0 mi WNW 12.7 mph 19.6 mph N/A   Overcast
11:55 PM 50.9 °F 35.8 °F 56% 29.88 in 10.0 mi WNW 10.4 mph 19.6 mph N/A   Overcast